Location: Meanaryar
(48.4161°N, 4.7315°W)
Time: 10:55:11
(UTC+00:00)

Daily predictions for brighter satellites

Satellite Brightness Start Highest point End
(mag) Time Altitude Azimuth Time Altitude Azimuth Time Altitude Azimuth
Cosmos 1725 Rocket 4.3 18:48:31 10° SSW 18:54:49 79° W 19:01:06 10° N
Cosmos 2112 Rocket 4.1 18:50:20 10° NNW 18:55:34 85° WSW 19:00:47 10° SSE
Cosmos 1680 Rocket 3.9 18:54:10 10° NNW 18:59:23 69° WSW 19:04:35 10° S
NOSS 3-1 (A) 4.2 18:54:50 10° WSW 19:00:20 53° NW 19:06:50 10° NE
Cosmos 1937 Rocket 3.7 18:55:40 10° S 19:00:41 48° ESE 19:05:42 10° NNE
Cosmos 1544 3.1 18:57:02 10° S 19:00:42 87° W 19:04:22 10° N
MOS 1 Rocket 3.6 18:59:50 10° NNE 19:04:02 37° E 19:08:02 10° SSE
Cosmos 1842 3.2 19:02:38 10° N 19:06:32 84° E 19:10:24 10° S
FREGAT/IRIS 4.3 19:05:32 11° E 19:06:37 13° ENE 19:07:55 10° NE
Cosmos 1975 Rocket 3.0 19:07:11 10° N 19:11:31 69° ENE 19:15:48 10° SSE
NOSS 8 (H) 4.2 19:09:15 10° SSW 19:12:23 54° SE 19:15:21 10° NE
NOSS 8 (E) 4.2 19:09:14 10° SW 19:12:27 84° NW 19:15:29 10° NE
COSMO-SKYMED 1 4.1 19:10:10 10° N 19:14:17 42° WNW 19:18:22 10° SW
Cosmos 2084 Rocket 3.9 19:10:18 10° NW 19:14:42 66° SW 19:19:11 10° SSE
NOSS 2-2 (E) 3.7 19:13:00 10° S 19:16:14 36° ESE 19:19:48 10° NE
Cosmos 1707 3.0 19:17:17 10° N 19:21:00 45° ENE 19:24:42 10° SSE
H-2A R/B 2.0 19:16:15 10° SSE 19:21:12 86° ENE 19:26:18 10° NNW
Resurs 01 Rocket 3.4 19:19:16 12° E 19:21:12 15° ENE 19:23:45 10° NNE
ARGOS 3.1 19:17:06 10° SSE 19:22:25 70° ENE 19:27:46 10° N
CZ-2C R/B 3.3 19:19:31 10° NNE 19:24:30 33° E 19:29:31 10° SSE
NOSS 2-2 (D) 3.7 19:21:30 10° S 19:24:41 34° ESE 19:28:10 10° NE
SJ-6B 3.5 19:21:47 12° SE 19:24:45 31° ENE 19:28:07 10° N
Sich 1 Rocket 3.6 19:22:38 10° S 19:27:02 59° E 19:31:31 10° NNE
Iridium 4 Rocket 4.0 19:23:02 10° SSW 19:27:54 65° W 19:33:18 10° N
ATLAS CENTAUR R/B 3.9 19:28:24 10° WNW 19:30:44 15° NNW 19:33:01 10° N
CENTAUR R/B 3.6 19:24:23 10° NW 19:31:50 47° NE 19:38:33 16° ESE
ATLAS 3B R/B 4.0 19:31:49 10° NW 19:37:26 27° NNE 19:42:49 11° ENE
Cosmos 2263 Rocket 2.4 19:32:49 10° SSW 19:38:23 76° WNW 19:44:01 10° NNE
SL-08 RB Rocket 3.7 19:34:13 10° SSE 19:38:47 69° ENE 19:43:20 10° N
USA 238 DEB 4.0 19:32:57 10° NW 19:40:02 60° NE 19:45:38 18° ESE
USA 238 4.0 19:33:03 10° NW 19:40:08 59° NE 19:45:43 18° ESE
ISS -2.8 19:37:27 10° SSW 19:40:24 29° SE 19:41:14 25° ESE
Abrixas rocket 1.7 19:38:26 10° WSW 19:41:16 82° S 19:42:31 30° E
SJ 16-02 3.5 19:38:26 10° WSW 19:42:18 30° WNW 19:46:11 10° N
Cosmos 1513 Rocket 4.5 19:36:30 10° S 19:42:41 66° E 19:48:49 10° NNE
CZ-2C R/B 4.1 19:39:42 10° S 19:44:44 49° W 19:50:07 10° NNW
Cosmos 1844 Rocket 3.3 19:41:02 10° SSE 19:45:50 31° ESE 19:50:39 10° NE
Okean 2 Rocket 3.1 19:42:44 10° S 19:47:10 61° E 19:51:36 10° NNE
Lacrosse 5 rocket 3.0 19:46:42 10° W 19:50:38 34° NNW 19:54:45 10° NE
Cosmos 1464 Rocket 3.9 19:44:45 10° S 19:50:50 73° E 19:56:59 10° NNE
Okean 1 Rocket 4.1 19:51:22 24° E 19:51:42 25° E 19:55:20 10° NNE
Cosmos 1943 4.3 19:47:14 10° NW 19:52:35 44° WSW 19:57:54 10° S
IRS-1A Rocket 4.3 19:47:54 10° SSE 19:53:48 81° ENE 19:59:42 10° NNW
Ariane Rocket 2.9 19:50:25 10° SSE 19:55:29 83° ENE 20:00:36 10° NNW
Cosmos 1092 Rocket 4.4 19:50:55 10° N 19:56:45 43° ENE 20:00:15 23° SE
Meteor 1-12 Rocket 4.2 19:52:29 10° S 19:58:24 78° E 20:04:14 10° NNE
Resurs 1-3 4.0 19:57:58 28° ESE 19:59:47 44° ENE 20:03:59 10° N
Cosmos 1300 Rocket 3.4 19:55:46 10° S 20:00:09 80° E 20:04:36 10° NNE
Cosmos 494 Rocket 4.4 19:58:20 10° NNW 20:03:25 46° ENE 20:05:36 30° ESE
Cosmos 2298 Rocket 4.0 19:59:18 10° S 20:04:30 57° ESE 20:09:44 10° NNE
Cosmos 1833 Rocket 4.2 20:01:36 10° N 20:05:47 21° NE 20:07:47 17° ENE
CZ-2C R/B 4.5 20:01:52 10° NE 20:05:30 30° E 20:05:30 30° E
SPOT 3 Rocket 3.8 20:03:39 27° SE 20:06:10 50° ENE 20:11:09 10° N
NOSS 3-2 (A) 4.0 20:00:59 10° NW 20:08:25 83° NE 20:13:56 24° SE
MetOp-A 4.1 20:03:48 14° SSE 20:08:26 84° ENE 20:13:50 10° NNW
NOSS 2-2 (C) 3.0 20:05:37 10° SW 20:09:08 87° NW 20:13:08 10° NE
Cosmos 1867 4.3 20:10:04 10° NW 20:15:21 51° WSW 20:19:18 17° S
Cosmos 1536 Rocket 3.5 20:11:07 10° N 20:15:36 87° WSW 20:18:27 22° S
Cosmos 1626 3.5 20:15:30 10° NNE 20:17:51 25° NE 20:17:51 25° NE
Terra 4.1 20:19:13 11° NE 20:19:13 11° NE 20:20:07 10° NE
BREEZE-M DEB (TANK) 4.4 20:18:35 10° WSW 20:19:16 12° SW 20:19:16 12° SW
CREW DRAGON DEMO-1 DEB 3.4 20:16:49 10° WNW 20:19:46 46° N 20:19:51 46° NNE
USA 186 3.4 20:20:18 14° SSW 20:22:32 33° W 20:25:29 10° NNW
DMSP B5D2-2 4.0 20:21:38 10° NNE 20:26:58 89° E 20:32:16 10° SSW
USA 234 3.3 20:21:10 10° ENE 20:27:34 55° SE 20:33:58 10° SW
Cosmos 2151 Rocket 3.8 20:23:57 10° SSW 20:28:24 73° W 20:32:54 10° N
Meteor 2-5 Rocket 3.7 20:23:06 10° N 20:28:41 61° ENE 20:30:35 40° SE
Cosmos 1025 Rocket 4.0 20:25:02 10° NNW 20:29:15 47° W 20:33:04 12° SSW
Cosmos 372 Rocket 4.4 20:26:31 10° SW 20:31:43 63° WNW 20:36:56 10° NNE
OBJECT-B 1.1 20:34:34 65° W 20:34:34 65° W 20:37:48 10° NNW
Cosmos 2150 Rocket 4.0 20:29:14 10° SSW 20:34:36 90° WSW 20:40:06 10° NNE
Cosmos 1805 3.6 20:35:57 51° NE 20:35:57 51° NE 20:39:04 10° NNE
FREGAT/IRIS 4.4 20:36:28 24° W 20:36:35 24° W 20:38:48 10° NW
SPOT 5 4.5 20:40:10 23° NE 20:40:10 23° NE 20:43:58 10° N
NOSS 3-2 (C) 4.0 20:35:07 10° NW 20:42:35 86° NE 20:46:12 38° SE
Meteor 1-22 Rocket 4.4 20:43:04 49° ESE 20:43:42 51° E 20:49:30 10° NNE
Nadezhda 4 Rocket 4.4 20:37:44 10° NNW 20:43:45 59° W 20:49:18 12° S
Cosmos 1674 3.1 20:40:12 10° NNW 20:44:00 61° W 20:44:32 54° SW
BREEZE-M DEB (TANK) 4.2 20:40:56 10° W 20:44:30 41° SSW 20:47:13 30° SSE
Cosmos 1125 Rocket 3.4 20:40:03 10° SSW 20:45:21 77° ESE 20:50:41 10° NNE
Cosmos 2082 Rocket 3.6 20:41:23 10° N 20:45:48 23° NE 20:46:33 22° NE
Cosmos 2034 Rocket 4.4 20:41:35 10° SSW 20:47:54 63° WNW 20:54:13 10° N
SL-14 R/B 4.2 20:48:55 10° N 20:51:36 40° NNE 20:51:36 40° NNE
COSMOS 2406 3.5 20:48:23 10° NNW 20:53:53 47° NE 20:54:20 46° ENE
Meteor 1-24 Rocket 3.5 20:50:04 10° N 20:55:34 76° ENE 20:56:23 63° SE
ERS-1 Rocket 4.1 20:57:24 30° NE 20:57:24 30° NE 21:01:05 10° N
Resurs 01 Rocket 1.6 20:56:51 73° SW 20:57:07 77° WSW 21:01:36 10° NNW
Lacrosse 4 Rocket 3.5 21:00:08 10° N 21:02:11 17° NNE 21:02:11 17° NNE
Landsat 7 4.0 21:04:40 59° NE 21:04:40 59° NE 21:08:51 10° N
CZ-2C R/B 3.9 20:59:42 10° N 21:04:53 43° WNW 21:10:06 10° SW
Exosat Rocket 3.5 21:00:22 10° SSW 21:05:57 81° WNW 21:10:58 10° NNE
Cosmos 1766 4.4 21:08:59 40° NNW 21:08:59 40° NNW 21:11:40 10° N
ATLAS 2AS CENTAUR R/B 3.2 21:03:29 10° SSW 21:11:59 50° E 21:18:39 10° NE
IGS 5A 4.4 21:13:37 42° N 21:13:37 42° N 21:16:27 10° N
Cosmos 1655 Rocket 4.2 21:06:36 10° N 21:12:30 51° ENE 21:12:30 51° ENE
SPOT 1/Viking Rocket 3.7 21:14:24 61° NE 21:14:24 61° NE 21:19:00 10° N
ARIANE 5 R/B 3.1 21:15:16 56° NNW 21:15:16 56° NNW 21:18:44 10° NNW
ISS -0.9 21:13:40 10° WSW 21:14:15 14° WSW 21:14:15 14° WSW
Cosmos 1844 3.9 21:11:56 10° SW 21:17:38 71° WNW 21:23:18 10° NNE
Cosmos 2278 Rocket 4.5 21:22:33 11° NE 21:22:33 11° NE 21:22:47 10° NE
Cosmos 1634 Rocket 4.0 21:19:01 40° SSW 21:21:22 75° W 21:27:35 10° N
Cosmos 1269 Rocket 4.1 21:16:43 10° NNW 21:21:56 75° W 21:21:56 75° W
MetOp-B 4.2 21:22:32 70° SW 21:22:47 72° WSW 21:28:10 10° NNW
CENTAUR R/B 3.3 21:15:06 10° NW 21:23:07 68° SW 21:25:44 48° S
Cosmos 2285 Rocket 4.3 21:20:33 10° SSW 21:26:48 67° WNW 21:33:10 10° NNE
Spot 2 Rocket 3.7 21:28:19 67° NNW 21:28:19 67° NNW 21:32:42 10° NNW
ATLAS 3B R/B 2.8 21:22:37 10° NW 21:29:25 64° NE 21:30:03 61° ENE
Okean 1 Rocket 4.4 21:28:30 34° WSW 21:29:25 38° WNW 21:33:38 10° N
Cosmos 1844 Rocket 3.5 21:24:06 10° SW 21:29:29 49° NW 21:34:56 10° NNE
Lacrosse 5 rocket 3.2 21:26:58 10° NW 21:30:47 28° N 21:30:50 28° N
Cosmos 909 Rocket 4.3 21:40:35 10° NNW 21:46:53 58° NE 21:46:53 58° NE
Cosmos 1833 Rocket 3.1 21:44:52 10° NNW 21:49:28 60° NNW 21:49:28 60° NNW
Cosmos 2251 Rocket 4.5 21:49:33 10° NNW 21:53:17 43° N 21:53:17 43° N
Terra 3.4 21:58:07 30° N 21:58:07 30° N 22:00:35 10° N
Cosmos 2279 Rocket 4.4 22:05:24 57° W 22:05:40 57° WNW 22:11:52 10° N
USA 234 3.5 22:06:56 27° NE 22:10:41 64° NNW 22:17:09 10° WSW
SPOT 5 4.3 22:19:24 38° NW 22:19:24 38° NW 22:22:45 10° NNW
Cosmos 2082 Rocket 3.4 22:24:56 10° NNW 22:28:23 39° NW 22:28:23 39° NW
Lacrosse 4 Rocket 4.5 22:38:05 10° NW 22:38:29 12° NW 22:38:29 12° NW
Cosmos 2278 Rocket 4.0 23:04:22 27° N 23:04:22 27° N 23:07:08 10° NNE
ATLAS 2AS CENTAUR R/B 3.5 22:59:08 37° W 23:02:11 55° NW 23:09:51 10° NE
ATLAS 3B R/B 4.2 23:13:41 10° NW 23:17:17 27° WNW 23:17:17 27° WNW
USA 234 4.3 23:47:05 10° ENE 23:54:28 38° NNW 23:59:14 10° WNW
